When you browse on this site, cookies collect data to enhance your experience and personalize the content and advertising you see.
Visit our Privacy Policy to learn more. By continuing to use the site, you agree to this use of cookies and data.
  • In Hungary
  • List of Countries
  • For 7 days
  • Water Temperature
  • Satellite Maps
  • Weather Map
  • News
  • Weather Widgets
  • user-avatar
    Login

    Hourly Weather Sadok

    Today, 21 May, Tuesday

    Time Temperature Precipitation Wind Pressure Humidity
    00:00 +14°C° 0.2 mm 1 mps 746 mmHg 83%
    01:00 +13°C° 0.2 mm 1 mps 746 mmHg 87%
    02:00 +13°C° 0.2 mm 1 mps 746 mmHg 91%
    03:00 +13°C° 0.2 mm 1 mps 746 mmHg 91%
    04:00 +14°C° 0.2 mm 1 mps 746 mmHg 90%
    05:00 +14°C° 0.2 mm 1 mps 746 mmHg 90%
    06:00 +16°C° 0 mm 1 mps 746 mmHg 84%
    07:00 +17°C° 0 mm 2 mps 746 mmHg 79%
    08:00 +19°C° 0 mm 2 mps 745 mmHg 73%
    09:00 +21°C° 0.2 mm 2 mps 745 mmHg 64%
    10:00 +22°C° 0.2 mm 3 mps 745 mmHg 54%
    11:00 +25°C° 0.2 mm 3 mps 744 mmHg 45%
    12:00 +25°C° 0 mm 3 mps 744 mmHg 44%
    13:00 +26°C° 0 mm 4 mps 744 mmHg 43%
    14:00 +26°C° 0 mm 4 mps 743 mmHg 42%
    15:00 +25°C° 0 mm 3 mps 743 mmHg 47%
    16:00 +24°C° 0 mm 3 mps 742 mmHg 51%
    17:00 +24°C° 0 mm 2 mps 742 mmHg 56%
    18:00 +21°C° 0 mm 2 mps 742 mmHg 61%
    19:00 +20°C° 0 mm 2 mps 742 mmHg 66%
    20:00 +19°C° 0 mm 2 mps 742 mmHg 71%
    21:00 +18°C° 0 mm 2 mps 741 mmHg 73%
    22:00 +17°C° 0 mm 2 mps 741 mmHg 74%
    23:00 +16°C° 0 mm 3 mps 741 mmHg 76%

    Tomorrow, 22 May, Wednesday

    Time Temperature Precipitation Wind Pressure Humidity
    00:00 +15°C° 0 mm 2 mps 741 mmHg 76%
    01:00 +14°C° 0 mm 2 mps 741 mmHg 77%
    02:00 +14°C° 0 mm 2 mps 741 mmHg 77%
    03:00 +14°C° 0 mm 2 mps 741 mmHg 78%
    04:00 +14°C° 0 mm 2 mps 741 mmHg 78%
    05:00 +15°C° 0 mm 2 mps 740 mmHg 78%
    06:00 +16°C° 0.2 mm 2 mps 740 mmHg 78%
    07:00 +16°C° 0.2 mm 2 mps 740 mmHg 78%
    08:00 +18°C° 0.2 mm 1 mps 740 mmHg 79%
    09:00 +19°C° 0.5 mm 1 mps 740 mmHg 80%
    10:00 +19°C° 0.5 mm 1 mps 739 mmHg 81%
    11:00 +19°C° 0.5 mm 1 mps 739 mmHg 81%
    12:00 +20°C° 0.2 mm 1 mps 739 mmHg 77%
    13:00 +21°C° 0.2 mm 1 mps 738 mmHg 72%
    14:00 +21°C° 0.2 mm 2 mps 738 mmHg 68%
    15:00 +21°C° 0.2 mm 2 mps 737 mmHg 67%
    16:00 +23°C° 0.2 mm 1 mps 737 mmHg 66%
    17:00 +23°C° 0.2 mm 1 mps 737 mmHg 65%
    18:00 +21°C° 0.3 mm 1 mps 737 mmHg 71%
    19:00 +19°C° 0.3 mm 1 mps 736 mmHg 77%
    20:00 +16°C° 0.3 mm 0 mps 736 mmHg 83%
    21:00 +16°C° 0.1 mm 1 mps 736 mmHg 85%
    22:00 +16°C° 0.1 mm 1 mps 736 mmHg 87%
    23:00 +16°C° 0.1 mm 1 mps 736 mmHg 88%

    Day after tomorrow, 23 May, Thursday

    Time Temperature Precipitation Wind Pressure Humidity
    00:00 +15°C° 0 mm 1 mps 736 mmHg 90%
    01:00 +15°C° 0 mm 2 mps 736 mmHg 91%
    02:00 +14°C° 0 mm 2 mps 735 mmHg 93%
    03:00 +15°C° 0 mm 2 mps 736 mmHg 93%
    04:00 +15°C° 0 mm 2 mps 736 mmHg 93%
    05:00 +15°C° 0 mm 2 mps 736 mmHg 93%
    06:00 +16°C° 0.1 mm 2 mps 736 mmHg 92%
    07:00 +16°C° 0.1 mm 3 mps 736 mmHg 91%
    08:00 +17°C° 0.1 mm 3 mps 736 mmHg 90%
    09:00 +17°C° 0 mm 3 mps 737 mmHg 88%
    10:00 +16°C° 0 mm 3 mps 737 mmHg 87%
    11:00 +16°C° 0 mm 3 mps 737 mmHg 85%
    12:00 +17°C° 0 mm 3 mps 737 mmHg 80%
    13:00 +18°C° 0 mm 3 mps 737 mmHg 74%
    14:00 +18°C° 0 mm 2 mps 738 mmHg 69%
    15:00 +19°C° 0 mm 3 mps 738 mmHg 66%
    16:00 +19°C° 0 mm 3 mps 738 mmHg 62%
    17:00 +20°C° 0 mm 3 mps 738 mmHg 59%
    18:00 +18°C° 0 mm 3 mps 738 mmHg 64%
    19:00 +16°C° 0 mm 3 mps 738 mmHg 70%
    20:00 +14°C° 0 mm 2 mps 739 mmHg 75%
    21:00 +13°C° 0 mm 2 mps 739 mmHg 75%
    22:00 +10°C° 0 mm 2 mps 739 mmHg 75%
    23:00 +9°C° 0 mm 2 mps 740 mmHg 75%

    24 May, Friday

    Time Temperature Precipitation Wind Pressure Humidity
    00:00 +9°C° 0 mm 2 mps 740 mmHg 73%
    01:00 +8°C° 0 mm 2 mps 740 mmHg 71%
    02:00 +7°C° 0 mm 2 mps 740 mmHg 68%
    03:00 +7°C° 0 mm 2 mps 740 mmHg 69%
    04:00 +8°C° 0 mm 2 mps 740 mmHg 69%
    05:00 +8°C° 0 mm 3 mps 740 mmHg 70%
    06:00 +10°C° 0 mm 3 mps 740 mmHg 68%
    07:00 +12°C° 0 mm 3 mps 740 mmHg 66%
    08:00 +14°C° 0 mm 3 mps 740 mmHg 63%
    09:00 +16°C° 0 mm 3 mps 740 mmHg 60%
    10:00 +18°C° 0 mm 3 mps 740 mmHg 56%
    11:00 +20°C° 0 mm 4 mps 739 mmHg 53%
    12:00 +20°C° 0 mm 4 mps 739 mmHg 54%
    13:00 +20°C° 0 mm 4 mps 739 mmHg 56%
    14:00 +21°C° 0 mm 4 mps 739 mmHg 58%
    15:00 +20°C° 0.2 mm 3 mps 738 mmHg 64%
    16:00 +20°C° 0.2 mm 3 mps 738 mmHg 70%
    17:00 +19°C° 0.2 mm 3 mps 737 mmHg 76%
    18:00 +18°C° 0.5 mm 3 mps 737 mmHg 82%
    19:00 +17°C° 0.5 mm 3 mps 737 mmHg 88%
    20:00 +16°C° 0.5 mm 2 mps 737 mmHg 94%
    21:00 +16°C° 0.2 mm 3 mps 736 mmHg 95%
    22:00 +14°C° 0.2 mm 3 mps 736 mmHg 96%
    23:00 +14°C° 0.2 mm 3 mps 736 mmHg 97%

    25 May, Saturday

    Time Temperature Precipitation Wind Pressure Humidity
    00:00 +14°C° 0.1 mm 3 mps 736 mmHg 97%
    01:00 +15°C° 0.1 mm 2 mps 735 mmHg 98%
    02:00 +15°C° 0.1 mm 2 mps 735 mmHg 98%
    03:00 +15°C° 0 mm 2 mps 735 mmHg 98%
    04:00 +14°C° 0 mm 3 mps 735 mmHg 97%
    05:00 +14°C° 0 mm 3 mps 734 mmHg 97%
    06:00 +14°C° 0 mm 3 mps 734 mmHg 96%
    07:00 +16°C° 0 mm 3 mps 734 mmHg 95%
    08:00 +16°C° 0 mm 2 mps 734 mmHg 94%
    09:00 +18°C° 0 mm 2 mps 734 mmHg 88%
    10:00 +19°C° 0 mm 2 mps 734 mmHg 82%
    11:00 +21°C° 0 mm 2 mps 734 mmHg 77%
    12:00 +21°C° 0.6 mm 3 mps 733 mmHg 74%
    13:00 +22°C° 0.6 mm 3 mps 733 mmHg 71%
    14:00 +24°C° 0.6 mm 3 mps 733 mmHg 68%
    15:00 +22°C° 0.6 mm 3 mps 733 mmHg 72%
    16:00 +21°C° 0.6 mm 2 mps 733 mmHg 76%
    17:00 +21°C° 0.6 mm 2 mps 732 mmHg 80%
    18:00 +19°C° 0.2 mm 2 mps 732 mmHg 85%
    19:00 +18°C° 0.2 mm 2 mps 732 mmHg 91%
    20:00 +16°C° 0.2 mm 2 mps 732 mmHg 96%
    21:00 +15°C° 0 mm 2 mps 732 mmHg 96%
    22:00 +15°C° 0 mm 2 mps 732 mmHg 96%
    23:00 +14°C° 0 mm 2 mps 732 mmHg 96%

    26 May, Sunday

    Time Temperature Precipitation Wind Pressure Humidity
    00:00 +14°C° 0 mm 2 mps 732 mmHg 96%
    01:00 +13°C° 0 mm 2 mps 732 mmHg 95%
    02:00 +13°C° 0 mm 2 mps 732 mmHg 95%
    03:00 +13°C° 0 mm 2 mps 732 mmHg 95%
    04:00 +13°C° 0 mm 2 mps 732 mmHg 94%
    05:00 +12°C° 0 mm 2 mps 733 mmHg 94%
    06:00 +13°C° 0 mm 2 mps 733 mmHg 86%
    07:00 +14°C° 0 mm 2 mps 733 mmHg 79%
    08:00 +15°C° 0 mm 2 mps 733 mmHg 71%
    09:00 +17°C° 0 mm 3 mps 733 mmHg 64%
    10:00 +19°C° 0 mm 3 mps 733 mmHg 57%
    11:00 +20°C° 0 mm 3 mps 733 mmHg 51%
    12:00 +20°C° 0.5 mm 3 mps 733 mmHg 56%
    13:00 +20°C° 0.5 mm 4 mps 733 mmHg 62%
    14:00 +19°C° 0.5 mm 4 mps 733 mmHg 68%
    15:00 +19°C° 0.1 mm 4 mps 733 mmHg 64%
    16:00 +19°C° 0.1 mm 4 mps 733 mmHg 61%
    17:00 +19°C° 0.1 mm 4 mps 733 mmHg 58%
    18:00 +17°C° 0 mm 3 mps 733 mmHg 64%
    19:00 +14°C° 0 mm 3 mps 733 mmHg 70%
    20:00 +13°C° 0 mm 2 mps 734 mmHg 75%
    21:00 +12°C° 0 mm 2 mps 734 mmHg 80%
    22:00 +10°C° 0 mm 2 mps 734 mmHg 85%
    23:00 +9°C° 0 mm 2 mps 734 mmHg 90%
    Show more